Location: Anmer
(52.8333°N, 0.5833°E)
Time: 11:08:45
(UTC+00:00)

CZ-4B R/B - Pass Details

Date: 15 May 2026
Orbit: 442 x 557 km, 97.8° (Epoch: 8 June)

Event Time Altitude Azimuth Distance (km) Brightness Sun altitude
Exits shadow 20:49:54 10° 148° (SSE) 1,580 4.5 -7.9°
Maximum altitude 20:53:12 53° 71° (ENE) 574 2.8 -8.2°
Drops below altitude 10° 20:56:38 10° 354° (N) 1,647 6.2 -8.5°
Sets 20:58:46 0° 349° (N) 2,549 7.4 -8.8°
